TimeAKST,TemperatureF,Dew PointF,Humidity,Sea Level PressureIn,VisibilityMPH,Wind Direction,Wind SpeedMPH,Gust SpeedMPH,PrecipitationIn,Events,Conditions,WindDirDegrees,DateUTC
2:24 AM,6.8,3.2,85,30.16,10.0,North,4.6,-,N/A,,Clear,10,2014-02-09 11:24:00
3:53 AM,8.1,1.0,73,30.14,10.0,ENE,6.9,-,N/A,,Clear,70,2014-02-09 12:53:00
4:04 AM,6.8,1.4,79,30.12,10.0,NE,6.9,-,N/A,,Clear,40,2014-02-09 13:04:00
5:03 AM,10.4,1.4,67,30.10,10.0,NE,6.9,-,N/A,,Clear,40,2014-02-09 14:03:00
5:47 AM,8.6,1.4,73,30.09,6.0,Calm,Calm,-,N/A,,Haze,0,2014-02-09 14:47:00
6:52 AM,8.6,1.4,73,30.06,10.0,NNE,9.2,-,N/A,,Clear,20,2014-02-09 15:52:00
7:53 AM,7.0,-0.0,73,30.06,10.0,South,5.8,-,N/A,,Clear,170,2014-02-09 16:53:00
8:53 AM,12.2,3.2,67,30.04,10.0,NE,6.9,-,N/A,,Clear,50,2014-02-09 17:53:00
9:53 AM,30.2,1.4,29,30.03,10.0,East,4.6,-,N/A,,Clear,90,2014-02-09 18:53:00
10:53 AM,15.1,3.0,59,30.04,10.0,Calm,Calm,-,N/A,,Clear,0,2014-02-09 19:53:00
11:53 AM,19.4,3.2,49,30.01,10.0,North,11.5,-,N/A,,Clear,10,2014-02-09 20:53:00
12:53 PM,21.0,1.9,44,30.00,10.0,North,18.4,-,N/A,,Clear,10,2014-02-09 21:53:00
1:53 PM,21.0,1.0,42,29.99,10.0,North,20.7,25.3,N/A,,Clear,10,2014-02-09 22:53:00
2:53 PM,21.9,1.9,42,29.96,10.0,NNE,16.1,-,N/A,,Clear,20,2014-02-09 23:53:00
3:53 PM,21.0,1.9,44,29.94,10.0,North,17.3,25.3,N/A,,Clear,10,2014-02-10 00:53:00
4:53 PM,19.9,1.9,46,29.93,10.0,NNE,15.0,-,N/A,,Clear,20,2014-02-10 01:53:00
5:53 PM,17.6,1.4,49,29.90,10.0,North,9.2,-,N/A,,Clear,10,2014-02-10 02:53:00
6:53 PM,17.6,1.4,49,29.89,10.0,North,13.8,-,N/A,,Clear,10,2014-02-10 03:53:00
7:53 PM,18.0,1.0,48,29.89,10.0,North,13.8,-,N/A,,Clear,360,2014-02-10 04:53:00
9:53 PM,17.1,-0.9,45,29.89,10.0,North,19.6,24.2,N/A,,Clear,10,2014-02-10 06:53:00
10:53 PM,17.1,-0.0,47,29.87,10.0,North,20.7,-,N/A,,Clear,10,2014-02-10 07:53:00
11:53 PM,17.1,1.0,50,29.87,10.0,North,24.2,-,N/A,,Mostly Cloudy,10,2014-02-10 08:53:00